This is the latest recevied weather packets stored in our database for station/object M0TUM-1. If no packets are shown the sender has not sent any weather packets the latest 10 day(s).
| Time | Temp. | Humidity | Pressure | Rain* | Wind** | Luminosity | Snow |
|---|---|---|---|---|---|---|---|
| 1777653128 | 23.33° C | 29% | 1018.7 hPa | 0 mm | - | 267 W/m² | - |
| 1777652824 | 23.89° C | 29% | 1018.8 hPa | 0 mm | - | 281 W/m² | - |
| 1777652521 | 23.89° C | 29% | 1018.9 hPa | 0 mm | - | 291 W/m² | - |
| 1777652218 | 23.89° C | 29% | 1019 hPa | 0 mm | - | 303 W/m² | - |
| 1777651915 | 23.33° C | 29% | 1018.9 hPa | 0 mm | - | 311 W/m² | - |
| 1777651611 | 23.89° C | 30% | 1018.9 hPa | 0 mm | - | 324 W/m² | - |
| 1777651309 | 23.33° C | 30% | 1019 hPa | 0 mm | - | 339 W/m² | - |
| 1777651006 | 23.33° C | 31% | 1019.1 hPa | 0 mm | - | 343 W/m² | - |
| 1777650703 | 23.89° C | 32% | 1019.1 hPa | 0 mm | - | 355 W/m² | - |
| 1777650400 | 23.89° C | 31% | 1019 hPa | 0 mm | - | 355 W/m² | - |
| 1777650097 | 23.89° C | 31% | 1019.2 hPa | 0 mm | - | 365 W/m² | - |
| 1777649794 | 23.89° C | 31% | 1019.3 hPa | 0 mm | - | 383 W/m² | - |
| 1777649491 | 23.89° C | 31% | 1019.3 hPa | 0 mm | - | 405 W/m² | - |
| 1777649188 | 23.89° C | 30% | 1019.1 hPa | 0 mm | - | 415 W/m² | - |
| 1777648885 | 23.33° C | 31% | 1019.2 hPa | 0 mm | - | 415 W/m² | - |
| 1777648278 | 24.44° C | 30% | 1019.3 hPa | 0 mm | - | 446 W/m² | - |
| 1777647975 | 24.44° C | 29% | 1019.1 hPa | 0 mm | - | 445 W/m² | - |
| 1777647671 | 23.89° C | 30% | 1019.6 hPa | 0 mm | - | 461 W/m² | - |
| 1777647367 | 23.89° C | 29% | 1019.4 hPa | 0 mm | - | 482 W/m² | - |
| 1777647065 | 23.89° C | 30% | 1019.3 hPa | 0 mm | - | 483 W/m² | - |
| 1777646761 | 23.89° C | 30% | 1019.6 hPa | 0 mm | - | 481 W/m² | - |
| 1777646461 | 23.33° C | 30% | 1019.7 hPa | 0 mm | - | 487 W/m² | - |
| 1777646158 | 23.89° C | 29% | 1019.8 hPa | 0 mm | - | 492 W/m² | - |
| 1777645855 | 23.89° C | 30% | 1019.6 hPa | 0 mm | - | 509 W/m² | - |
| 1777645552 | 23.89° C | 29% | 1019.6 hPa | 0 mm | - | 516 W/m² | - |
* Rain latest hour (hover to see other rain measurements)
** Current wind speed in m/s (hover to see current wind gust speed)